| time (UTC) | temp C | wind direction | speed KPH | gust KPH | rain 1hr cm | rain 24hr cm | rain mn cm | humidity % | barometer mb |
| 20260903044015 | 24 | 355 | 0.0 | 0.0 | 0.00 | 0.00 | 0.00 | 93 | 1017.6 |
| 20260903043510 | 24 | 355 | 0.0 | 0.0 | 0.00 | 0.00 | 0.00 | 93 | 1017.7 |
| 20260903043020 | 24 | 355 | 0.0 | 0.0 | 0.00 | 0.00 | 0.00 | 93 | 1017.6 |
| 20260903042516 | 24 | 355 | 0.0 | 0.0 | 0.00 | 0.00 | 0.00 | 93 | 1017.6 |
| 20260903042008 | 24 | 355 | 0.0 | 0.0 | 0.00 | 0.00 | 0.00 | 93 | 1017.5 |
| 20260903041532 | 24 | 355 | 0.0 | 0.0 | 0.00 | 0.00 | 0.00 | 93 | 1017.4 |
| 20260903041017 | 24 | 355 | 0.0 | 0.0 | 0.00 | 0.00 | 0.00 | 93 | 1017.4 |
| 20260903040510 | 24 | 355 | 0.0 | 0.0 | 0.00 | 0.00 | 0.00 | 93 | 1017.5 |
| 20260903040023 | 24 | 355 | 0.0 | 0.0 | 0.00 | 0.00 | 0.00 | 93 | 1017.5 |
| 20260903035519 | 24 | 355 | 0.0 | 0.0 | 0.00 | 0.00 | 0.00 | 93 | 1017.4 |
| 20260903035011 | 24 | 355 | 0.0 | 0.0 | 0.00 | 0.00 | 0.00 | 93 | 1017.4 |
| 20260903034525 | 24 | 116 | 0.0 | 0.0 | 0.00 | 0.00 | 0.00 | 93 | 1017.4 |
| 20260903034017 | 24 | 116 | 0.0 | 0.0 | 0.00 | 0.00 | 0.00 | 93 | 1017.3 |
| 20260903033511 | 24 | 116 | 0.0 | 0.0 | 0.00 | 0.00 | 0.00 | 93 | 1017.2 |
| 20260903033026 | 24 | 116 | 0.0 | 0.0 | 0.00 | 0.00 | 0.00 | 93 | 1017.2 |
| 20260903032518 | 24 | 116 | 0.0 | 0.0 | 0.00 | 0.00 | 0.00 | 92 | 1017.3 |
| 20260903032010 | 25 | 116 | 0.0 | 0.0 | 0.00 | 0.00 | 0.00 | 92 | 1017.2 |
| 20260903031528 | 25 | 116 | 0.0 | 0.0 | 0.00 | 0.00 | 0.00 | 92 | 1017.2 |
| 20260903031015 | 25 | 116 | 0.0 | 0.0 | 0.00 | 0.00 | 0.00 | 92 | 1017.2 |
| 20260903030515 | 25 | 116 | 0.0 | 0.0 | 0.00 | 0.00 | 0.00 | 92 | 1017.3 |
| 20260903030035 | 25 | 116 | 0.0 | 0.0 | 0.00 | 0.00 | 0.00 | 92 | 1017.4 |
| 20260903025521 | 25 | 116 | 0.0 | 0.0 | 0.00 | 0.00 | 0.00 | 92 | 1017.4 |
| 20260903025013 | 25 | 116 | 0.0 | 1.6 | 0.00 | 0.00 | 0.00 | 91 | 1017.4 |
| 20260903024527 | 25 | 116 | 0.0 | 1.6 | 0.00 | 0.00 | 0.00 | 91 | 1017.3 |
| 20260903024013 | 25 | 116 | 0.0 | 0.0 | 0.00 | 0.00 | 0.00 | 91 | 1017.5 |
| 20260903023514 | 25 | 116 | 0.0 | 0.0 | 0.00 | 0.00 | 0.00 | 91 | 1017.5 |
| 20260903023033 | 25 | 116 | 0.0 | 0.0 | 0.00 | 0.00 | 0.00 | 91 | 1017.6 |
| 20260903022508 | 25 | 116 | 0.0 | 0.0 | 0.00 | 0.00 | 0.00 | 91 | 1017.5 |
| 20260903022013 | 25 | 116 | 0.0 | 0.0 | 0.00 | 0.00 | 0.00 | 91 | 1017.6 |
| 20260903021530 | 25 | 116 | 0.0 | 0.0 | 0.00 | 0.00 | 0.00 | 90 | 1017.7 |
| 20260903021014 | 25 | 116 | 0.0 | 0.0 | 0.00 | 0.00 | 0.00 | 90 | 1017.6 |
| 20260903020513 | 25 | 116 | 0.0 | 0.0 | 0.00 | 0.00 | 0.00 | 90 | 1017.6 |
| 20260903020038 | 25 | 116 | 0.0 | 0.0 | 0.00 | 0.00 | 0.00 | 89 | 1017.7 |
| 20260903015508 | 26 | 116 | 0.0 | 0.0 | 0.00 | 0.00 | 0.00 | 89 | 1017.7 |
| 20260903015015 | 26 | 116 | 0.0 | 0.0 | 0.00 | 0.00 | 0.00 | 89 | 1017.7 |
| 20260903014543 | 26 | 116 | 0.0 | 0.0 | 0.00 | 0.00 | 0.00 | 89 | 1017.8 |
| 20260903014009 | 26 | 116 | 0.0 | 0.0 | 0.00 | 0.00 | 0.00 | 89 | 1017.7 |
| 20260903013515 | 26 | 116 | 0.0 | 0.0 | 0.00 | 0.00 | 0.00 | 88 | 1017.8 |
| 20260903013030 | 26 | 116 | 0.0 | 0.0 | 0.00 | 0.00 | 0.00 | 88 | 1017.8 |
| 20260903012522 | 26 | 116 | 0.0 | 0.0 | 0.00 | 0.00 | 0.00 | 88 | 1017.8 |
| 20260903012017 | 26 | 116 | 0.0 | 0.0 | 0.00 | 0.00 | 0.00 | 87 | 1017.8 |
| 20260903011538 | 26 | 116 | 0.0 | 0.0 | 0.00 | 0.00 | 0.00 | 87 | 1017.7 |
| 20260903011009 | 26 | 116 | 0.0 | 1.6 | 0.00 | 0.00 | 0.00 | 87 | 1017.7 |
| 20260903010515 | 26 | 116 | 0.0 | 1.6 | 0.00 | 0.00 | 0.00 | 87 | 1017.5 |
| 20260903010039 | 26 | 116 | 0.0 | 1.6 | 0.00 | 0.00 | 0.00 | 86 | 1017.5 |
| 20260903005511 | 26 | 116 | 0.0 | 1.6 | 0.00 | 0.00 | 0.00 | 86 | 1017.4 |
| 20260903005019 | 26 | 116 | 0.0 | 1.6 | 0.00 | 0.00 | 0.00 | 85 | 1017.2 |
| 20260903004506 | 27 | 116 | 0.0 | 1.6 | 0.00 | 0.00 | 0.00 | 85 | 1017.3 |
| 20260903004003 | 27 | 116 | 0.0 | 1.6 | 0.00 | 0.00 | 0.00 | 85 | 1017.3 |
| 20260903003503 | 27 | 116 | 0.0 | 3.2 | 0.00 | 0.00 | 0.00 | 84 | 1017.3 |
| 20260903003004 | 27 | 116 | 0.0 | 3.2 | 0.00 | 0.00 | 0.00 | 84 | 1017.2 |
| 20260903002505 | 27 | 171 | 0.0 | 1.6 | 0.00 | 0.00 | 0.00 | 84 | 1017.2 |
| 20260903002005 | 27 | 171 | 0.0 | 1.6 | 0.00 | 0.00 | 0.00 | 84 | 1017.2 |
| 20260903001505 | 27 | 171 | 0.0 | 0.0 | 0.00 | 0.00 | 0.00 | 83 | 1017.4 |
| 20260903001005 | 27 | 171 | 0.0 | 4.8 | 0.00 | 0.00 | 0.00 | 83 | 1017.3 |
| 20260903000503 | 27 | 171 | 0.0 | 4.8 | 0.00 | 0.00 | 0.00 | 82 | 1017.2 |
| 20260903000003 | 27 | 178 | 0.0 | 4.8 | 0.00 | 0.00 | 0.00 | 82 | 1017.1 |
| 20260902235504 | 27 | 179 | 0.0 | 4.8 | 0.00 | 0.00 | 0.00 | 82 | 1017.2 |
| 20260902235003 | 27 | 179 | 0.0 | 6.4 | 0.00 | 0.00 | 0.00 | 81 | 1017.3 |
| 20260902234504 | 27 | 109 | 1.6 | 6.4 | 0.00 | 0.00 | 0.00 | 81 | 1017.1 |
| 20260902234003 | 28 | 202 | 1.6 | 6.4 | 0.00 | 0.00 | 0.00 | 81 | 1017.0 |
| 20260902233503 | 28 | 171 | 0.0 | 12.9 | 0.00 | 0.00 | 0.00 | 81 | 1016.9 |
| 20260902233004 | 28 | 130 | 1.6 | 12.9 | 0.00 | 0.00 | 0.00 | 80 | 1017.0 |
| 20260902232504 | 28 | 186 | 0.0 | 14.5 | 0.00 | 0.00 | 0.00 | 80 | 1017.1 |
| 20260902232003 | 28 | 190 | 1.6 | 14.5 | 0.00 | 0.00 | 0.00 | 80 | 1017.2 |
| 20260902231505 | 28 | 161 | 0.0 | 11.3 | 0.00 | 0.00 | 0.00 | 80 | 1017.4 |
| 20260902231006 | 28 | 145 | 1.6 | 9.7 | 0.00 | 0.00 | 0.00 | 79 | 1017.4 |
| 20260902230504 | 28 | 343 | 0.0 | 9.7 | 0.00 | 0.00 | 0.00 | 79 | 1017.7 |
| 20260902230002 | 28 | 196 | 0.0 | 9.7 | 0.00 | 0.00 | 0.00 | 79 | 1017.6 |
| 20260902225503 | 28 | 103 | 4.8 | 12.9 | 0.00 | 0.00 | 0.00 | 79 | 1017.3 |
| 20260902225002 | 28 | 169 | 1.6 | 14.5 | 0.00 | 0.00 | 0.00 | 78 | 1017.2 |
| 20260902224504 | 28 | 178 | 4.8 | 14.5 | 0.00 | 0.00 | 0.00 | 78 | 1017.3 |
| 20260902224003 | 28 | 170 | 4.8 | 12.9 | 0.00 | 0.00 | 0.00 | 78 | 1017.7 |
| 20260902223503 | 28 | 160 | 1.6 | 6.4 | 0.00 | 0.00 | 0.00 | 78 | 1018.0 |
| 20260902223005 | 28 | 180 | 1.6 | 6.4 | 0.00 | 0.00 | 0.00 | 78 | 1017.8 |
| 20260902222507 | 29 | 164 | 0.0 | 9.7 | 0.00 | 0.00 | 0.00 | 77 | 1017.7 |
| 20260902222004 | 29 | 128 | 0.0 | 12.9 | 0.00 | 0.00 | 0.00 | 77 | 1017.8 |
| 20260902221515 | 29 | 160 | 1.6 | 12.9 | 0.00 | 0.00 | 0.00 | 76 | 1017.9 |
| 20260902221004 | 29 | 109 | 3.2 | 11.3 | 0.00 | 0.00 | 0.00 | 76 | 1018.0 |
| 20260902220505 | 29 | 186 | 4.8 | 11.3 | 0.00 | 0.00 | 0.00 | 75 | 1018.1 |
| 20260902220006 | 29 | 121 | 3.2 | 11.3 | 0.00 | 0.00 | 0.00 | 75 | 1017.8 |
| 20260902215503 | 29 | 76 | 4.8 | 12.9 | 0.00 | 0.00 | 0.00 | 74 | 1017.9 |
| 20260902215008 | 30 | 180 | 3.2 | 17.7 | 0.00 | 0.00 | 0.00 | 73 | 1017.8 |
| 20260902214516 | 30 | 132 | 4.8 | 17.7 | 0.00 | 0.00 | 0.00 | 71 | 1017.9 |
| 20260902214002 | 30 | 233 | 6.4 | 16.1 | 0.00 | 0.00 | 0.00 | 70 | 1017.6 |
| 20260902213502 | 31 | 149 | 6.4 | 16.1 | 0.00 | 0.00 | 0.00 | 68 | 1017.7 |
| 20260902213006 | 31 | 185 | 4.8 | 12.9 | 0.00 | 0.00 | 0.00 | 64 | 1017.7 |
| 20260902212503 | 31 | 117 | 4.8 | 22.5 | 0.00 | 0.00 | 0.00 | 63 | 1017.6 |
| 20260902212005 | 31 | 122 | 1.6 | 22.5 | 0.00 | 0.00 | 0.00 | 66 | 1017.6 |
| 20260902211504 | 31 | 158 | 4.8 | 19.3 | 0.00 | 0.00 | 0.00 | 65 | 1017.7 |
| 20260902211005 | 32 | 119 | 4.8 | 24.1 | 0.00 | 0.00 | 0.00 | 62 | 1017.6 |
| 20260902210505 | 33 | 198 | 8.0 | 24.1 | 0.00 | 0.00 | 0.00 | 61 | 1017.4 |
| 20260902210009 | 34 | 198 | 8.0 | 17.7 | 0.00 | 0.00 | 0.00 | 60 | 1017.3 |
| 20260902205504 | 34 | 166 | 3.2 | 11.3 | 0.00 | 0.00 | 0.00 | 60 | 1017.2 |
| 20260902205005 | 34 | 277 | 1.6 | 8.0 | 0.00 | 0.00 | 0.00 | 59 | 1017.2 |
| 20260902204508 | 34 | 242 | 1.6 | 6.4 | 0.00 | 0.00 | 0.00 | 58 | 1017.1 |
| 20260902204003 | 35 | 315 | 1.6 | 8.0 | 0.00 | 0.00 | 0.00 | 57 | 1017.1 |
| 20260902203506 | 35 | 355 | 1.6 | 8.0 | 0.00 | 0.00 | 0.00 | 56 | 1017.1 |
| 20260902203008 | 35 | 296 | 1.6 | 8.0 | 0.00 | 0.00 | 0.00 | 56 | 1017.1 |
| 20260902202506 | 35 | 46 | 1.6 | 9.7 | 0.00 | 0.00 | 0.00 | 56 | 1017.1 |
| 20260902202006 | 35 | 69 | 1.6 | 12.9 | 0.00 | 0.00 | 0.00 | 55 | 1017.2 |
| 20260902201509 | 35 | 128 | 4.8 | 12.9 | 0.00 | 0.00 | 0.00 | 55 | 1017.3 |
| 20260902201004 | 35 | 147 | 3.2 | 6.4 | 0.00 | 0.00 | 0.00 | 56 | 1017.3 |
| 20260902200511 | 35 | 343 | 3.2 | 6.4 | 0.00 | 0.00 | 0.00 | 53 | 1017.3 |
| 20260902200011 | 35 | 306 | 0.0 | 6.4 | 0.00 | 0.00 | 0.00 | 54 | 1017.4 |
| 20260902195506 | 35 | 294 | 0.0 | 6.4 | 0.00 | 0.00 | 0.00 | 53 | 1017.4 |
| 20260902195007 | 35 | 204 | 0.0 | 6.4 | 0.00 | 0.00 | 0.00 | 52 | 1017.3 |
| 20260902194526 | 35 | 302 | 0.0 | 6.4 | 0.00 | 0.00 | 0.00 | 54 | 1017.2 |
| 20260902194004 | 35 | 312 | 1.6 | 6.4 | 0.00 | 0.00 | 0.00 | 53 | 1017.2 |
| 20260902193504 | 35 | 345 | 1.6 | 8.0 | 0.00 | 0.00 | 0.00 | 55 | 1017.1 |
| 20260902193010 | 35 | 195 | 3.2 | 8.0 | 0.00 | 0.00 | 0.00 | 55 | 1017.1 |
| 20260902192508 | 35 | 109 | 1.6 | 8.0 | 0.00 | 0.00 | 0.00 | 57 | 1017.2 |
| 20260902192008 | 35 | 288 | 1.6 | 8.0 | 0.00 | 0.00 | 0.00 | 54 | 1017.3 |
| 20260902191512 | 35 | 42 | 3.2 | 8.0 | 0.00 | 0.00 | 0.00 | 53 | 1017.3 |
| 20260902191007 | 35 | 42 | 1.6 | 6.4 | 0.00 | 0.00 | 0.00 | 53 | 1017.3 |
| 20260902190507 | 35 | 107 | 1.6 | 4.8 | 0.00 | 0.00 | 0.00 | 56 | 1017.5 |
| 20260902190010 | 35 | 349 | 0.0 | 8.0 | 0.00 | 0.00 | 0.00 | 56 | 1017.5 |
| 20260902185508 | 35 | 325 | 0.0 | 8.0 | 0.00 | 0.00 | 0.00 | 56 | 1017.6 |
| 20260902185011 | 35 | 286 | 1.6 | 8.0 | 0.00 | 0.00 | 0.00 | 61 | 1017.7 |
| 20260902184509 | 34 | 325 | 1.6 | 4.8 | 0.00 | 0.00 | 0.00 | 58 | 1017.7 |
| 20260902184007 | 34 | 347 | 0.0 | 6.4 | 0.00 | 0.00 | 0.00 | 57 | 1017.7 |
| 20260902183509 | 35 | 269 | 0.0 | 9.7 | 0.00 | 0.00 | 0.00 | 57 | 1017.8 |
| 20260902183012 | 35 | 319 | 0.0 | 9.7 | 0.00 | 0.00 | 0.00 | 57 | 1017.8 |
| 20260902182508 | 35 | 321 | 0.0 | 8.0 | 0.00 | 0.00 | 0.00 | 57 | 1017.8 |
| 20260902182008 | 34 | 337 | 1.6 | 6.4 | 0.00 | 0.00 | 0.00 | 58 | 1017.9 |
| 20260902181514 | 34 | 59 | 0.0 | 6.4 | 0.00 | 0.00 | 0.00 | 58 | 1017.9 |
| 20260902181009 | 34 | 329 | 1.6 | 6.4 | 0.00 | 0.00 | 0.00 | 59 | 1018.0 |
| 20260902180509 | 34 | 5 | 1.6 | 6.4 | 0.00 | 0.00 | 0.00 | 56 | 1018.0 |
| 20260902180014 | 35 | 352 | 1.6 | 9.7 | 0.00 | 0.00 | 0.00 | 56 | 1018.0 |
| 20260902175512 | 35 | 324 | 1.6 | 9.7 | 0.00 | 0.00 | 0.00 | 57 | 1018.0 |
| 20260902175008 | 34 | 304 | 1.6 | 9.7 | 0.00 | 0.00 | 0.00 | 59 | 1018.0 |
| 20260902174515 | 34 | 15 | 1.6 | 8.0 | 0.00 | 0.00 | 0.00 | 57 | 1018.0 |
| 20260902174010 | 35 | 38 | 1.6 | 6.4 | 0.00 | 0.00 | 0.00 | 55 | 1018.0 |
| 20260902173512 | 35 | 219 | 0.0 | 6.4 | 0.00 | 0.00 | 0.00 | 59 | 1018.0 |
| 20260902173023 | 35 | 122 | 1.6 | 4.8 | 0.00 | 0.00 | 0.00 | 58 | 1017.9 |
| 20260902172509 | 34 | 293 | 1.6 | 8.0 | 0.00 | 0.00 | 0.00 | 58 | 1018.0 |
| 20260902172011 | 34 | 324 | 3.2 | 8.0 | 0.00 | 0.00 | 0.00 | 58 | 1018.0 |
| 20260902171518 | 34 | 352 | 4.8 | 8.0 | 0.00 | 0.00 | 0.00 | 56 | 1018.0 |
| 20260902171014 | 33 | 327 | 1.6 | 6.4 | 0.00 | 0.00 | 0.00 | 59 | 1018.0 |
| 20260902170510 | 33 | 132 | 1.6 | 6.4 | 0.00 | 0.00 | 0.00 | 58 | 1018.1 |
| 20260902170019 | 34 | 321 | 1.6 | 6.4 | 0.00 | 0.00 | 0.00 | 60 | 1018.0 |
| 20260902165510 | 34 | 51 | 1.6 | 6.4 | 0.00 | 0.00 | 0.00 | 58 | 1018.0 |
| 20260902165014 | 33 | 15 | 1.6 | 6.4 | 0.00 | 0.00 | 0.00 | 58 | 1018.1 |
| 20260902164518 | 34 | 320 | 1.6 | 6.4 | 0.00 | 0.00 | 0.00 | 58 | 1018.1 |
| 20260902164011 | 33 | 127 | 1.6 | 6.4 | 0.00 | 0.00 | 0.00 | 62 | 1018.1 |
| 20260902163511 | 33 | 350 | 1.6 | 6.4 | 0.00 | 0.00 | 0.00 | 58 | 1018.1 |
| 20260902163018 | 33 | 193 | 0.0 | 8.0 | 0.00 | 0.00 | 0.00 | 66 | 1018.1 |
| 20260902162509 | 33 | 30 | 1.6 | 8.0 | 0.00 | 0.00 | 0.00 | 61 | 1018.1 |
| 20260902162013 | 33 | 115 | 0.0 | 6.4 | 0.00 | 0.00 | 0.00 | 60 | 1018.2 |
| 20260902161520 | 33 | 30 | 3.2 | 6.4 | 0.00 | 0.00 | 0.00 | 58 | 1018.2 |
| 20260902161017 | 33 | 34 | 1.6 | 8.0 | 0.00 | 0.00 | 0.00 | 60 | 1018.2 |
| 20260902160512 | 33 | 158 | 1.6 | 8.0 | 0.00 | 0.00 | 0.00 | 62 | 1018.3 |
| 20260902160022 | 33 | 42 | 0.0 | 8.0 | 0.00 | 0.00 | 0.00 | 61 | 1018.3 |
| 20260902155510 | 33 | 24 | 0.0 | 8.0 | 0.00 | 0.00 | 0.00 | 60 | 1018.3 |
| 20260902155014 | 32 | 349 | 3.2 | 8.0 | 0.00 | 0.00 | 0.00 | 60 | 1018.3 |
| 20260902154515 | 32 | 355 | 0.0 | 4.8 | 0.00 | 0.00 | 0.00 | 62 | 1018.3 |
| 20260902154005 | 33 | 230 | 0.0 | 6.4 | 0.00 | 0.00 | 0.00 | 63 | 1018.4 |
| 20260902153504 | 32 | 27 | 1.6 | 6.4 | 0.00 | 0.00 | 0.00 | 64 | 1018.3 |
| 20260902153016 | 33 | 192 | 0.0 | 4.8 | 0.00 | 0.00 | 0.00 | 65 | 1018.3 |
| 20260902152505 | 32 | 305 | 0.0 | 11.3 | 0.00 | 0.00 | 0.00 | 63 | 1018.4 |
| 20260902152007 | 32 | 329 | 1.6 | 11.3 | 0.00 | 0.00 | 0.00 | 63 | 1018.5 |
| 20260902151526 | 32 | 117 | 1.6 | 8.0 | 0.00 | 0.00 | 0.00 | 69 | 1018.5 |
| 20260902151005 | 32 | 327 | 1.6 | 8.0 | 0.00 | 0.00 | 0.00 | 62 | 1018.6 |
| 20260902150508 | 31 | 331 | 0.0 | 8.0 | 0.00 | 0.00 | 0.00 | 66 | 1018.7 |
| 20260902150022 | 31 | 22 | 1.6 | 4.8 | 0.00 | 0.00 | 0.00 | 63 | 1018.6 |
| 20260902145503 | 31 | 209 | 1.6 | 6.4 | 0.00 | 0.00 | 0.00 | 67 | 1018.6 |
| 20260902145008 | 31 | 315 | 1.6 | 6.4 | 0.00 | 0.00 | 0.00 | 67 | 1018.5 |
| 20260902144523 | 31 | 319 | 1.6 | 4.8 | 0.00 | 0.00 | 0.00 | 67 | 1018.4 |
| 20260902144004 | 31 | 321 | 1.6 | 4.8 | 0.00 | 0.00 | 0.00 | 67 | 1018.4 |
| 20260902143508 | 30 | 318 | 1.6 | 4.8 | 0.00 | 0.00 | 0.00 | 69 | 1018.4 |
| 20260902143026 | 30 | 330 | 1.6 | 6.4 | 0.00 | 0.00 | 0.00 | 68 | 1018.5 |
| 20260902142506 | 30 | 49 | 0.0 | 6.4 | 0.00 | 0.00 | 0.00 | 69 | 1018.4 |
| 20260902142008 | 30 | 355 | 1.6 | 4.8 | 0.00 | 0.00 | 0.00 | 70 | 1018.4 |
| 20260902141532 | 30 | 304 | 0.0 | 4.8 | 0.00 | 0.00 | 0.00 | 71 | 1018.5 |
| 20260902141005 | 30 | 44 | 1.6 | 4.8 | 0.00 | 0.00 | 0.00 | 73 | 1018.4 |
| 20260902140507 | 29 | 342 | 1.6 | 4.8 | 0.00 | 0.00 | 0.00 | 73 | 1018.5 |
| 20260902140024 | 29 | 317 | 0.0 | 4.8 | 0.00 | 0.00 | 0.00 | 74 | 1018.5 |
| 20260902135505 | 28 | 329 | 0.0 | 0.0 | 0.00 | 0.00 | 0.00 | 76 | 1018.5 |
| 20260902135010 | 28 | 54 | 0.0 | 0.0 | 0.00 | 0.00 | 0.00 | 77 | 1018.5 |
| 20260902134535 | 28 | 360 | 0.0 | 0.0 | 0.00 | 0.00 | 0.00 | 78 | 1018.4 |
| 20260902134005 | 28 | 306 | 0.0 | 0.0 | 0.00 | 0.00 | 0.00 | 79 | 1018.5 |
| 20260902133511 | 27 | 316 | 0.0 | 4.8 | 0.00 | 0.00 | 0.00 | 80 | 1018.4 |
| 20260902133025 | 27 | 331 | 0.0 | 4.8 | 0.00 | 0.00 | 0.00 | 81 | 1018.3 |
| 20260902132512 | 27 | 39 | 0.0 | 4.8 | 0.00 | 0.00 | 0.00 | 81 | 1018.3 |
| 20260902132011 | 27 | 44 | 0.0 | 3.2 | 0.00 | 0.00 | 0.00 | 82 | 1018.2 |
| 20260902131530 | 27 | 34 | 0.0 | 3.2 | 0.00 | 0.00 | 0.00 | 82 | 1018.3 |
| 20260902131004 | 27 | 350 | 1.6 | 4.8 | 0.00 | 0.00 | 0.00 | 82 | 1018.2 |
| 20260902130513 | 26 | 352 | 0.0 | 4.8 | 0.00 | 0.00 | 0.00 | 83 | 1018.2 |
| 20260902130027 | 26 | 350 | 0.0 | 1.6 | 0.00 | 0.00 | 0.00 | 83 | 1018.2 |
| 20260902125514 | 26 | 350 | 0.0 | 1.6 | 0.00 | 0.00 | 0.00 | 84 | 1018.2 |
| 20260902125017 | 26 | 350 | 0.0 | 3.2 | 0.00 | 0.00 | 0.00 | 85 | 1018.3 |
| 20260902124527 | 26 | 350 | 0.0 | 3.2 | 0.00 | 0.00 | 0.00 | 86 | 1018.2 |
| 20260902124007 | 25 | 350 | 0.0 | 1.6 | 0.00 | 0.00 | 0.00 | 89 | 1018.1 |
| 20260902123511 | 25 | 350 | 0.0 | 3.2 | 0.00 | 0.00 | 0.00 | 89 | 1018.2 |
| 20260902123028 | 25 | 350 | 0.0 | 3.2 | 0.00 | 0.00 | 0.00 | 90 | 1018.2 |
| 20260902122511 | 25 | 350 | 0.0 | 0.0 | 0.00 | 0.00 | 0.00 | 92 | 1018.2 |
| 20260902122012 | 24 | 350 | 0.0 | 0.0 | 0.00 | 0.00 | 0.00 | 93 | 1018.3 |
| 20260902121528 | 24 | 350 | 0.0 | 0.0 | 0.00 | 0.00 | 0.00 | 94 | 1018.2 |
| 20260902121006 | 23 | 350 | 0.0 | 0.0 | 0.00 | 0.00 | 0.00 | 94 | 1018.2 |
| 20260902120512 | 23 | 350 | 0.0 | 0.0 | 0.00 | 0.00 | 0.00 | 95 | 1018.1 |
| 20260902120029 | 23 | 350 | 0.0 | 0.0 | 0.00 | 0.00 | 0.00 | 95 | 1018.1 |
| 20260902115512 | 23 | 350 | 0.0 | 0.0 | 0.00 | 0.00 | 0.00 | 95 | 1018.1 |
| 20260902115014 | 23 | 350 | 0.0 | 0.0 | 0.00 | 0.00 | 0.00 | 95 | 1018.1 |
| 20260902114538 | 23 | 350 | 0.0 | 0.0 | 0.00 | 0.00 | 0.00 | 95 | 1018.0 |
| 20260902114011 | 23 | 350 | 0.0 | 0.0 | 0.00 | 0.00 | 0.00 | 95 | 1018.0 |
| 20260902113515 | 23 | 350 | 0.0 | 0.0 | 0.00 | 0.00 | 0.00 | 95 | 1018.1 |
| 20260902113026 | 23 | 350 | 0.0 | 0.0 | 0.00 | 0.00 | 0.00 | 95 | 1018.1 |
| 20260902112511 | 23 | 350 | 0.0 | 0.0 | 0.00 | 0.00 | 0.00 | 95 | 1018.0 |
| 20260902112015 | 23 | 350 | 0.0 | 0.0 | 0.00 | 0.00 | 0.00 | 95 | 1018.1 |
| 20260902111529 | 23 | 350 | 0.0 | 0.0 | 0.00 | 0.00 | 0.00 | 95 | 1018.1 |
| 20260902111011 | 23 | 351 | 0.0 | 0.0 | 0.00 | 0.00 | 0.00 | 95 | 1018.1 |
| 20260902110515 | 23 | 350 | 0.0 | 1.6 | 0.00 | 0.00 | 0.00 | 95 | 1018.1 |
| 20260902110032 | 23 | 350 | 0.0 | 1.6 | 0.00 | 0.00 | 0.00 | 95 | 1018.1 |
| 20260902105512 | 23 | 350 | 0.0 | 0.0 | 0.00 | 0.00 | 0.00 | 94 | 1018.1 |
| 20260902105014 | 23 | 350 | 0.0 | 0.0 | 0.00 | 0.00 | 0.00 | 94 | 1018.0 |
| 20260902104526 | 23 | 350 | 0.0 | 0.0 | 0.00 | 0.00 | 0.00 | 94 | 1017.9 |
| 20260902104012 | 23 | 350 | 0.0 | 0.0 | 0.00 | 0.00 | 0.00 | 94 | 1017.9 |
| 20260902103516 | 23 | 350 | 0.0 | 0.0 | 0.00 | 0.00 | 0.00 | 94 | 1017.8 |
| 20260902103012 | 23 | 350 | 0.0 | 0.0 | 0.00 | 0.00 | 0.00 | 94 | 1017.9 |
| 20260902102511 | 23 | 350 | 0.0 | 0.0 | 0.00 | 0.00 | 0.00 | 94 | 1017.8 |
| 20260902102017 | 23 | 350 | 0.0 | 0.0 | 0.00 | 0.00 | 0.00 | 94 | 1017.8 |
| 20260902101511 | 23 | 350 | 0.0 | 0.0 | 0.00 | 0.00 | 0.00 | 94 | 1017.8 |
| 20260902101016 | 23 | 350 | 0.0 | 0.0 | 0.00 | 0.00 | 0.00 | 94 | 1017.7 |
| 20260902100514 | 23 | 350 | 0.0 | 0.0 | 0.00 | 0.00 | 0.00 | 94 | 1017.6 |
| 20260902100012 | 23 | 350 | 0.0 | 1.6 | 0.00 | 0.00 | 0.00 | 94 | 1017.6 |
| 20260902095514 | 23 | 350 | 0.0 | 1.6 | 0.00 | 0.00 | 0.00 | 94 | 1017.6 |
| 20260902095016 | 23 | 350 | 0.0 | 0.0 | 0.00 | 0.00 | 0.00 | 95 | 1017.6 |
| 20260902094515 | 23 | 350 | 0.0 | 0.0 | 0.00 | 0.00 | 0.00 | 95 | 1017.6 |
| 20260902094012 | 23 | 350 | 0.0 | 0.0 | 0.00 | 0.00 | 0.00 | 95 | 1017.5 |
| 20260902093515 | 23 | 350 | 0.0 | 0.0 | 0.00 | 0.00 | 0.00 | 95 | 1017.5 |
| 20260902093012 | 23 | 350 | 0.0 | 0.0 | 0.00 | 0.00 | 0.00 | 95 | 1017.5 |
| 20260902092515 | 23 | 350 | 0.0 | 0.0 | 0.00 | 0.00 | 0.00 | 95 | 1017.5 |
| 20260902092022 | 23 | 350 | 0.0 | 0.0 | 0.00 | 0.00 | 0.00 | 95 | 1017.5 |
| 20260902091515 | 23 | 351 | 0.0 | 0.0 | 0.00 | 0.00 | 0.00 | 95 | 1017.5 |
| 20260902091015 | 23 | 350 | 0.0 | 0.0 | 0.00 | 0.00 | 0.00 | 95 | 1017.5 |
| 20260902090516 | 23 | 350 | 0.0 | 0.0 | 0.00 | 0.00 | 0.00 | 95 | 1017.4 |
| 20260902090016 | 23 | 350 | 0.0 | 0.0 | 0.00 | 0.00 | 0.00 | 95 | 1017.4 |
| 20260902085515 | 23 | 350 | 0.0 | 0.0 | 0.00 | 0.00 | 0.00 | 95 | 1017.3 |
| 20260902085018 | 23 | 351 | 0.0 | 0.0 | 0.00 | 0.00 | 0.00 | 94 | 1017.4 |
| 20260902084516 | 23 | 350 | 0.0 | 0.0 | 0.00 | 0.00 | 0.00 | 94 | 1017.4 |
| 20260902084021 | 23 | 350 | 0.0 | 0.0 | 0.00 | 0.00 | 0.00 | 94 | 1017.3 |
| 20260902083518 | 23 | 350 | 0.0 | 0.0 | 0.00 | 0.00 | 0.00 | 94 | 1017.3 |
| 20260902083017 | 23 | 350 | 0.0 | 0.0 | 0.00 | 0.00 | 0.00 | 94 | 1017.3 |
| 20260902082516 | 23 | 350 | 0.0 | 0.0 | 0.00 | 0.00 | 0.00 | 94 | 1017.3 |
| 20260902082021 | 23 | 350 | 0.0 | 0.0 | 0.00 | 0.00 | 0.00 | 94 | 1017.2 |
| 20260902081518 | 23 | 350 | 0.0 | 0.0 | 0.00 | 0.00 | 0.00 | 94 | 1017.2 |
| 20260902081020 | 23 | 351 | 0.0 | 0.0 | 0.00 | 0.00 | 0.00 | 94 | 1017.2 |
| 20260902080519 | 23 | 350 | 0.0 | 0.0 | 0.00 | 0.00 | 0.00 | 94 | 1017.2 |
| 20260902080022 | 23 | 350 | 0.0 | 0.0 | 0.00 | 0.00 | 0.00 | 94 | 1017.2 |
| 20260902075515 | 23 | 351 | 0.0 | 0.0 | 0.00 | 0.00 | 0.00 | 94 | 1017.2 |
| 20260902075019 | 23 | 350 | 0.0 | 0.0 | 0.00 | 0.00 | 0.00 | 94 | 1017.1 |
| 20260902074520 | 23 | 350 | 0.0 | 0.0 | 0.00 | 0.00 | 0.00 | 94 | 1017.1 |
| 20260902074017 | 23 | 350 | 0.0 | 0.0 | 0.00 | 0.00 | 0.00 | 94 | 1017.2 |
| 20260902073517 | 23 | 350 | 0.0 | 0.0 | 0.00 | 0.00 | 0.00 | 94 | 1017.2 |
| 20260902073023 | 23 | 350 | 0.0 | 0.0 | 0.00 | 0.00 | 0.00 | 93 | 1017.2 |
| 20260902072519 | 23 | 350 | 0.0 | 0.0 | 0.00 | 0.00 | 0.00 | 93 | 1017.2 |
| 20260902072019 | 23 | 350 | 0.0 | 0.0 | 0.00 | 0.00 | 0.00 | 93 | 1017.2 |
| 20260902071537 | 23 | 350 | 0.0 | 0.0 | 0.00 | 0.00 | 0.00 | 93 | 1017.1 |
| 20260902071019 | 23 | 350 | 0.0 | 0.0 | 0.00 | 0.00 | 0.00 | 93 | 1017.2 |
| 20260902070524 | 23 | 350 | 0.0 | 0.0 | 0.00 | 0.00 | 0.00 | 93 | 1017.2 |
| 20260902070026 | 23 | 350 | 0.0 | 0.0 | 0.00 | 0.00 | 0.00 | 93 | 1017.3 |
| 20260902065518 | 23 | 350 | 0.0 | 0.0 | 0.00 | 0.00 | 0.00 | 93 | 1017.2 |
| 20260902065019 | 23 | 350 | 0.0 | 0.0 | 0.00 | 0.00 | 0.00 | 93 | 1017.3 |
| 20260902064510 | 23 | 350 | 0.0 | 0.0 | 0.00 | 0.00 | 0.00 | 93 | 1017.2 |
| 20260902064006 | 23 | 350 | 0.0 | 0.0 | 0.00 | 0.00 | 0.00 | 93 | 1017.1 |
| 20260902063509 | 23 | 350 | 0.0 | 0.0 | 0.00 | 0.00 | 0.00 | 93 | 1017.1 |
| 20260902063004 | 23 | 350 | 0.0 | 0.0 | 0.00 | 0.00 | 0.00 | 93 | 1017.1 |
| 20260902062508 | 23 | 350 | 0.0 | 0.0 | 0.00 | 0.00 | 0.00 | 93 | 1017.1 |
| 20260902062013 | 23 | 350 | 0.0 | 0.0 | 0.00 | 0.00 | 0.00 | 92 | 1017.2 |
| 20260902061505 | 23 | 350 | 0.0 | 0.0 | 0.00 | 0.00 | 0.00 | 92 | 1017.1 |
| 20260902061009 | 23 | 350 | 0.0 | 0.0 | 0.00 | 0.00 | 0.00 | 92 | 1017.0 |
| 20260902060511 | 23 | 350 | 0.0 | 0.0 | 0.00 | 0.00 | 0.00 | 92 | 1016.8 |
| 20260902060004 | 23 | 350 | 0.0 | 0.0 | 0.00 | 0.00 | 0.00 | 92 | 1016.9 |
| 20260902055508 | 23 | 350 | 0.0 | 0.0 | 0.00 | 0.00 | 0.00 | 92 | 1016.9 |
| 20260902055014 | 23 | 350 | 0.0 | 0.0 | 0.00 | 0.00 | 0.00 | 91 | 1017.0 |
| 20260902054503 | 23 | 351 | 0.0 | 0.0 | 0.00 | 0.00 | 0.00 | 91 | 1017.1 |
| 20260902054005 | 23 | 350 | 0.0 | 0.0 | 0.00 | 0.00 | 0.00 | 91 | 1017.0 |
| 20260902053501 | 23 | 350 | 0.0 | 0.0 | 0.00 | 0.00 | 0.00 | 91 | 1017.0 |
| 20260902053006 | 23 | 351 | 0.0 | 0.0 | 0.00 | 0.00 | 0.00 | 91 | 1017.0 |
| 20260902052509 | 24 | 350 | 0.0 | 0.0 | 0.00 | 0.00 | 0.00 | 91 | 1017.1 |
| 20260902052002 | 24 | 350 | 0.0 | 0.0 | 0.00 | 0.00 | 0.00 | 91 | 1017.2 |
| 20260902051508 | 24 | 350 | 0.0 | 0.0 | 0.00 | 0.00 | 0.00 | 91 | 1017.2 |
| 20260902051009 | 24 | 350 | 0.0 | 0.0 | 0.00 | 0.00 | 0.00 | 91 | 1017.2 |
| 20260902050504 | 24 | 350 | 0.0 | 0.0 | 0.00 | 0.00 | 0.00 | 91 | 1017.2 |
| 20260902050008 | 24 | 350 | 0.0 | 0.0 | 0.00 | 0.00 | 0.00 | 91 | 1017.1 |
| 20260902045510 | 24 | 351 | 0.0 | 0.0 | 0.00 | 0.00 | 0.00 | 91 | 1017.1 |
| 20260902045002 | 25 | 350 | 0.0 | 0.0 | 0.00 | 0.00 | 0.00 | 91 | 1016.9 |
| 20260902044513 | 25 | 350 | 0.0 | 0.0 | 0.00 | 0.00 | 0.00 | 91 | 1016.9 |